Location: Chantarel
(45.1638°N, 1.7873°E)
Time: 18:33:25
(UTC+00:00)

Daily predictions for brighter satellites

Satellite Brightness Start Highest point End
(mag) Time Altitude Azimuth Time Altitude Azimuth Time Altitude Azimuth
Cosmos 1814 Rocket 4.2 19:32:54 10° NNW 19:38:08 76° WSW 19:43:17 10° SSE
SL-4 R/B 2.3 19:36:12 10° WNW 19:40:34 87° NE 19:45:12 10° ESE
Cosmos 1805 Rocket 4.4 19:38:58 10° N 19:42:56 34° ENE 19:46:54 10° SE
X-37B 0.6 19:40:33 10° W 19:43:45 88° S 19:46:57 10° E
IRS-1A Rocket 4.4 19:45:11 10° SSE 19:50:55 76° ENE 19:56:47 10° NNW
Cosmos 1745 Rocket 4.3 19:46:00 10° N 19:51:59 48° ENE 19:57:53 10° SSE
SPOT 3 Rocket 4.2 19:49:30 10° SE 19:54:18 40° ENE 19:59:07 10° N
ERS-2 3.3 19:51:31 10° N 19:55:02 48° WNW 19:58:32 10° SW
Cosmos 1844 4.0 19:50:54 10° S 19:56:19 46° ESE 20:01:43 10° NE
Resurs 1-3 3.6 19:52:02 10° SSE 19:56:22 70° ENE 20:00:45 10° N
Cosmos 1743 Rocket 3.5 19:52:47 10° N 19:57:09 86° E 20:01:30 10° S
Cosmos 968 Rocket 3.5 19:51:58 10° S 19:57:09 65° ESE 20:02:21 10° NNE
BREEZE-M DEB (TANK) 3.8 19:53:39 10° W 19:57:57 89° S 20:05:25 10° ESE
ATLAS 5 CENTAUR R/B 3.1 19:54:40 10° NNW 19:59:50 41° NE 20:05:41 11° ESE
BREEZE M DEB (TANK) 4.0 19:59:57 10° WSW 20:03:30 78° NNW 20:14:52 10° ENE
Cosmos 1486 Rocket 4.1 19:59:27 10° S 20:04:41 61° ESE 20:09:57 10° NNE
Intercosmos 25 Rocket 4.1 19:59:44 10° N 20:06:33 78° E 20:10:42 10° SSE
IGS 5A 3.9 20:04:26 11° SE 20:08:10 46° ENE 20:12:09 10° N
Cosmos 1500 Rocket 3.9 20:04:43 10° NNW 20:09:07 70° W 20:13:27 10° S
Cosmos 1833 Rocket 4.4 20:05:23 10° N 20:09:27 20° NE 20:13:31 10° E
Cosmos 2221 3.9 20:06:22 10° SSW 20:10:27 43° WNW 20:14:36 10° N
S3M 4.1 20:04:51 10° S 20:11:08 63° E 20:17:24 10° NNE
BREEZE-M R/B 1.7 20:09:12 10° SW 20:11:56 59° SSE 20:14:20 10° ENE
USA 186 4.2 20:11:04 10° SW 20:12:46 16° W 20:14:26 10° NW
Cosmos 1666 Rocket 4.3 20:12:59 10° N 20:17:04 35° ENE 20:19:58 17° SE
FALCON 9 DEB 4.1 20:15:21 10° WNW 20:18:05 31° SW 20:20:03 16° SSE
Cosmos 1933 3.5 20:17:38 10° S 20:21:34 53° E 20:25:31 10° NNE
USA 245 3.8 20:23:41 17° E 20:23:59 18° ENE 20:25:38 10° NNE
FALCON 9 DEB 4.4 20:21:43 10° WNW 20:24:19 26° SW 20:26:04 15° S
Cosmos 1242 Rocket 2.7 20:24:03 13° S 20:27:06 49° E 20:30:33 10° NNE
OBJECT-B 3.2 20:24:51 10° SSW 20:27:23 21° W 20:29:57 10° NW
Cosmos 1553 Rocket 4.3 20:23:43 10° SSW 20:29:48 68° W 20:36:01 10° N
Cosmos 1437 Rocket 3.2 20:27:14 10° SSW 20:31:03 62° WNW 20:34:58 10° N
BREEZE M DEB (TANK) 3.3 20:25:57 10° WNW 20:31:44 43° N 20:34:07 10° ENE
FALCON 9 DEB 4.2 20:30:30 10° WNW 20:33:11 28° SW 20:34:36 19° S
Resurs 01 Rocket 1.7 20:29:42 13° S 20:33:44 82° WSW 20:38:13 10° NNW
OE (NEXTSAT) 4.4 20:33:56 10° W 20:37:24 75° N 20:39:58 17° E
Spot 2 Rocket 4.0 20:34:12 20° SE 20:37:24 45° ENE 20:42:11 10° N
SJ 16-02 3.4 20:38:19 12° E 20:38:19 12° E 20:39:43 10° ENE
DELTA 2 R/B (1) 4.1 20:33:30 10° W 20:38:43 42° SSW 20:41:51 22° SE
Sich 1 3.1 20:35:06 10° N 20:39:26 80° W 20:43:01 15° S
COSMOS 2406 4.4 20:35:14 10° N 20:40:13 30° NE 20:43:43 17° ESE
Meteor 1-20 Rocket 4.2 20:36:52 10° NNW 20:42:33 87° W 20:47:11 15° S
Cosmos 2082 Rocket 4.0 20:38:45 10° N 20:42:40 19° NE 20:46:28 10° E
BREEZE-M DEB (TANK) 4.3 20:43:19 10° WSW 20:44:45 14° SSW 20:45:33 13° SSW
CZ-4C R/B 3.5 20:38:22 10° NNW 20:45:11 48° NE 20:51:18 17° ESE
Cosmos 1782 2.9 20:43:16 22° SSE 20:45:38 54° E 20:49:34 10° NNE
Cosmos 1500 4.1 20:42:38 10° N 20:46:04 32° ENE 20:47:10 27° ESE
ERS-1 Rocket 3.6 20:50:52 24° ESE 20:53:21 41° ENE 20:58:03 10° N
SPOT 5 3.6 20:52:52 25° ESE 20:55:19 42° ENE 21:00:15 10° N
Cosmos 1503 Rocket 4.0 20:50:19 10° SSW 20:55:29 86° WNW 21:00:44 10° NNE
Cosmos 1271 Rocket 4.5 21:00:22 19° E 21:00:22 19° E 21:02:56 10° NE
Cosmos 1151 Rocket 2.9 20:58:03 20° S 21:01:04 83° E 21:05:27 10° N
Cosmos 1777 Rocket 4.3 20:58:39 26° SSE 21:01:08 43° ESE 21:06:03 10° NNE
USA 290 3.0 20:58:38 10° NNW 21:01:47 46° WSW 21:02:58 30° SSW
Terra 2.7 21:02:22 26° ESE 21:04:09 35° ENE 21:08:29 10° N
Cosmos 1602 3.8 21:00:38 10° NNW 21:04:29 73° W 21:06:20 29° S
Cosmos 2278 Rocket 2.7 21:05:44 29° SE 21:07:39 37° ESE 21:12:48 10° NE
USA 307 4.5 21:04:19 10° NW 21:08:09 31° NNE 21:11:24 13° ENE
CZ-2C R/B 4.1 21:08:32 10° N 21:12:57 61° WNW 21:17:25 10° SSW
Cosmos 1515 Rocket 3.6 21:17:35 41° SSE 21:18:48 57° E 21:23:08 10° NNE
SL-4 R/B 3.9 21:16:22 10° W 21:19:53 22° SW 21:21:08 20° SSW
SPOT 1/Viking Rocket 3.9 21:16:46 23° S 21:20:00 60° W 21:25:09 10° NNW
Cosmos 1844 Rocket 4.3 21:14:58 10° WSW 21:20:04 36° NW 21:25:12 10° NNE
Cosmos 2084 3.2 21:17:53 23° SSW 21:20:20 67° SE 21:24:33 10° NE
X-37B 0.7 21:17:11 10° W 21:20:09 63° SW 21:20:09 63° SW
USA 308 4.3 21:17:47 10° NW 21:21:44 34° NNE 21:24:24 17° ENE
ARIANE 5 R/B 2.6 21:20:40 36° S 21:22:21 75° WSW 21:26:43 10° NNW
SWARM C 4.3 21:19:17 10° N 21:22:37 85° E 21:22:52 74° SSE
SWARM A 4.0 21:19:23 10° N 21:22:43 88° E 21:23:01 73° S
Cosmos 1437 2.7 21:25:46 63° WNW 21:25:46 63° WNW 21:28:33 10° N
JB-3 4.2 21:22:43 10° N 21:26:39 84° W 21:27:56 41° SSW
Cosmos 1633 Rocket 3.8 21:25:02 10° NNW 21:29:16 48° W 21:31:23 26° SSW
Cosmos 1812 2.6 21:31:32 60° S 21:32:11 85° E 21:36:04 10° N
Cosmos 1470 Rocket 3.8 21:34:06 10° NNW 21:38:34 68° W 21:39:56 42° SSW
Cosmos 2184 Rocket 4.0 21:32:45 10° N 21:39:00 68° E 21:41:19 39° SSE
Cosmos 1328 Rocket 4.4 21:36:50 20° SW 21:39:38 48° WNW 21:43:56 10° N
Meteor 1-5 Rocket 4.0 21:34:42 10° N 21:40:09 89° W 21:42:00 43° S
NOSS 3-4 (A) 4.3 21:36:12 10° NNW 21:42:59 55° NE 21:47:03 28° ESE
NOSS 3-4 (C) 4.3 21:36:18 10° NNW 21:43:05 55° NE 21:47:10 27° ESE
ATLAS 5 CENTAUR R/B 3.0 21:39:09 10° NW 21:44:39 46° WSW 21:47:13 31° S
CARTOSAT-1 4.3 21:44:08 34° SW 21:45:30 46° W 21:49:40 10° NNW
Cosmos 2074 Rocket 3.9 21:40:39 10° N 21:46:59 81° E 21:49:23 41° SSE
NOSS 3-3 (A) 4.2 21:45:33 10° SW 21:51:16 68° NW 21:57:52 10° NE
NOSS 3-3 (C) 4.2 21:45:39 10° SW 21:51:23 68° NW 21:57:59 10° NE
Cosmos 1666 2.6 21:48:28 10° N 21:52:11 80° W 21:52:11 80° W
Cosmos 1933 Rocket 3.6 21:48:48 10° NNW 21:53:08 72° W 21:53:49 59° SSW
Nadezhda 1 Rocket 4.1 21:51:51 43° SSE 21:53:44 59° E 21:59:52 10° NNE
Cosmos 1833 Rocket 2.6 21:48:26 10° NNW 21:54:07 83° WSW 21:55:42 49° SSE
ATLAS 2AS CENTAUR R/B 3.6 21:49:23 10° NNW 21:56:28 43° NE 22:00:31 23° E
Meteor 2-12 Rocket 4.4 21:51:13 10° N 21:57:18 71° E 21:59:02 47° SSE
Cosmos 1743 4.4 21:54:14 10° NNE 21:56:52 23° ENE 21:56:52 23° ENE
BREEZE-M DEB (TANK) 3.9 21:57:14 10° WNW 21:57:58 19° NW 21:57:58 19° NW
USA 215 4.4 21:56:05 10° E 22:02:01 39° NNE 22:08:00 10° NW
Cosmos 1538 Rocket 4.0 21:57:23 10° NNW 22:02:45 76° WSW 22:03:56 54° S
USA 305 3.4 21:59:48 10° NW 22:04:00 54° NNE 22:04:41 48° ENE
Iridium 4 Rocket 4.0 22:01:47 36° SSW 22:04:09 68° W 22:10:03 10° N
Cosmos 1610 Rocket 4.4 22:02:52 10° N 22:09:03 76° E 22:10:38 51° SSE
Cosmos 158 Rocket 3.6 22:10:07 10° NNW 22:15:01 86° ENE 22:15:27 75° SSE
SJ 16-02 1.5 22:15:15 59° WSW 22:15:51 68° WNW 22:20:18 10° NNE
Cosmos 1733 Rocket 4.4 22:12:33 10° NNE 22:16:02 28° ENE 22:16:02 28° ENE
Cosmos 2228 Rocket 3.0 22:17:34 77° WSW 22:17:44 80° W 22:22:13 10° N
Meteor 1-27 Rocket 3.7 22:18:38 56° S 22:19:56 84° E 22:25:52 10° NNE
Cosmos 1680 Rocket 3.8 22:15:27 10° NNW 22:20:41 55° ENE 22:21:27 50° E
Cosmos 2341 Rocket 4.4 22:15:29 10° N 22:21:44 53° ENE 22:23:08 45° ESE
USA 306 3.1 22:18:54 10° NW 22:23:05 68° NNE 22:23:05 68° NNE
COSMOS 2406 3.7 22:19:18 10° NW 22:24:43 47° WSW 22:25:47 42° SW
Cosmos 2082 Rocket 2.0 22:21:52 10° NNW 22:27:31 86° WSW 22:28:19 67° SSE
ERS-1 Rocket 4.5 22:30:51 23° WSW 22:32:16 26° W 22:36:28 10° NW
CZ-4C R/B 3.3 22:26:52 10° NW 22:34:02 54° WSW 22:36:28 41° SSW
Cosmos 1271 Rocket 4.0 22:35:28 34° W 22:35:49 35° WNW 22:39:31 10° N
Cosmos 2218 Rocket 4.4 22:34:54 10° N 22:40:57 48° ENE 22:42:06 43° ESE
Terra 3.2 22:41:15 27° WSW 22:41:56 28° W 22:46:02 10° NW
Meteor 1-11 Rocket 4.3 22:38:09 10° NNW 22:43:54 51° W 22:45:14 43° SW
USA 307 3.5 22:44:13 10° NW 22:47:30 52° WNW 22:47:30 52° WNW
Cosmos 1340 Rocket 3.5 22:46:23 10° NNW 22:49:40 54° NNW 22:49:40 54° NNW
Cosmos 2278 Rocket 3.5 22:47:29 15° WSW 22:51:42 37° NW 22:56:57 10° NNE
Spot 4 3.8 22:53:27 84° NE 22:53:27 84° NE 22:58:14 10° NNW
Cosmos 923 Rocket 4.2 22:50:38 10° NNW 22:55:48 59° WSW 22:55:53 59° WSW
Cosmos 1862 Rocket 4.3 22:57:00 45° NE 22:57:00 45° NE 23:00:15 10° NNE
Cosmos 1898 Rocket 3.4 22:57:38 87° SSE 22:57:43 88° ESE 23:03:05 10° NNE
Cosmos 1536 4.2 22:56:26 10° NNW 22:59:30 32° WNW 22:59:30 32° WNW
USA 308 4.0 22:57:43 10° WNW 23:00:29 38° WNW 23:00:29 38° WNW
Cosmos 2369 Rocket 3.3 23:03:27 29° E 23:03:27 29° E 23:07:25 10° NE
COBE Rocket 4.4 23:07:04 52° ENE 23:07:08 52° ENE 23:12:07 10° N
Meteor 2-9 Rocket 4.1 23:04:21 10° N 23:10:12 77° ENE 23:10:35 73° ESE
SL-8 Rocket 3.9 23:04:19 10° N 23:10:42 88° W 23:11:34 69° S
Cosmos 1943 Rocket 2.2 23:11:55 68° E 23:11:55 68° E 23:17:17 10° NNE
Cosmos 1975 4.0 23:09:24 10° N 23:12:12 40° NNE 23:12:12 40° NNE
Cosmos 2084 Rocket 4.3 23:09:28 10° NNW 23:13:20 46° NNE 23:13:20 46° NNE
ALOS 2 3.0 23:16:05 61° N 23:16:05 61° N 23:19:46 10° N
DNEPR-1 R/B 4.1 23:19:56 70° E 23:19:56 70° E 23:24:39 10° NE
Meteor 2-4 Rocket 4.0 23:20:31 55° E 23:20:33 55° E 23:26:06 10° NNE
Cosmos 44 3.4 23:15:28 10° NW 23:20:48 85° NNW 23:20:48 85° NNW
Okean 1-7 4.3 23:30:15 34° NE 23:30:15 34° NE 23:33:07 10° NNE
Cosmos 372 Rocket 4.2 23:30:36 62° ENE 23:30:36 62° ENE 23:35:03 10° NNE
Meteor 1-18 Rocket 4.1 23:33:04 76° WSW 23:33:21 78° W 23:39:00 10° N
NOSS 3-4 (A) 4.4 23:27:17 10° NW 23:33:53 41° WSW 23:34:29 40° SW
NOSS 3-4 (C) 4.4 23:27:23 10° NW 23:33:59 41° WSW 23:34:35 41° SW
Cosmos 1238 Rocket 4.1 23:30:06 10° NNW 23:36:13 53° W 23:36:39 52° WSW
SL-24 R/B - RUBIN 2 4.3 23:32:55 10° NW 23:37:29 56° WNW 23:37:29 56° WNW
SeaSat 1 3.0 23:34:23 10° NE 23:38:19 47° ENE 23:38:19 47° ENE
Cosmos 2242 Rocket 4.3 23:40:22 48° NE 23:40:22 48° NE 23:43:46 10° NNE
Cosmos 864 Rocket 4.4 23:33:17 10° NNW 23:39:25 69° W 23:39:57 65° SW
USA 215 3.2 23:42:20 45° ESE 23:44:35 83° NE 23:51:09 10° NW
Cosmos 2297 4.3 23:45:51 44° W 23:47:02 51° WNW 23:52:35 10° NNE
ATLAS 2AS CENTAUR R/B 2.9 23:40:35 10° NW 23:47:37 53° WSW 23:47:56 52° SW
Cosmos 2181 Rocket 4.5 23:52:11 43° WSW 23:53:18 48° WNW 23:59:13 10° N
